Torna al catalogo

STARLINK-37441

AttivoComunicazioniSSO
NORAD 68858·PAYLOAD·🇺🇸 United States

Lanciato Apr 26, 2026 da Vandenberg Space Force Base

Loading…

Prossimi Passaggi (prossime 24 ore)

TLE

AggiornatoSource: CelesTrak SupGP

Epoca: Sep 14, 2026, 14:34 UTC

1 68858C 26094V   26257.60743056 -.00037833  00000+0 -11742-2 0  2578
2 68858  97.2838 270.8624 0001611  97.2111  48.7227 15.33465091    11

Traccia STARLINK-37441 in tempo reale con AllMySat

Download on the App Store